TimeCDT,TemperatureF,Dew PointF,Humidity,Sea Level PressureIn,VisibilityMPH,Wind Direction,Wind SpeedMPH,Gust SpeedMPH,PrecipitationIn,Events,Conditions,WindDirDegrees,DateUTC
12:15 AM,34.2,25.3,70,30.26,10.0,Calm,Calm,-,N/A,,Clear,0,2013-05-12 05:15:00
12:35 AM,34.9,24.8,67,30.27,10.0,Calm,Calm,-,N/A,,Clear,0,2013-05-12 05:35:00
12:55 AM,33.1,25.3,73,30.27,10.0,Calm,Calm,-,N/A,,Clear,0,2013-05-12 05:55:00
1:15 AM,32.2,24.8,74,30.27,10.0,Calm,Calm,-,N/A,,Clear,0,2013-05-12 06:15:00
1:35 AM,31.6,25.7,79,30.27,10.0,Calm,Calm,-,N/A,,Clear,0,2013-05-12 06:35:00
1:55 AM,32.0,25.9,78,30.27,10.0,Calm,Calm,-,N/A,,Clear,0,2013-05-12 06:55:00
2:15 AM,31.1,26.1,82,30.27,10.0,Calm,Calm,-,N/A,,Clear,0,2013-05-12 07:15:00
2:35 AM,30.2,25.5,83,30.27,10.0,Calm,Calm,-,N/A,,Clear,0,2013-05-12 07:35:00
2:55 AM,29.3,25.2,85,30.27,10.0,Calm,Calm,-,N/A,,Clear,0,2013-05-12 07:55:00
3:15 AM,28.4,24.8,86,30.27,10.0,Calm,Calm,-,N/A,,Clear,0,2013-05-12 08:15:00
3:35 AM,28.2,24.8,87,30.27,10.0,Calm,Calm,-,N/A,,Clear,0,2013-05-12 08:35:00
3:55 AM,28.8,25.0,86,30.27,10.0,Calm,Calm,-,N/A,,Clear,0,2013-05-12 08:55:00
4:35 AM,27.5,24.6,89,30.27,10.0,Calm,Calm,-,N/A,,Clear,0,2013-05-12 09:35:00
4:55 AM,27.3,24.3,88,30.27,10.0,Calm,Calm,-,N/A,,Clear,0,2013-05-12 09:55:00
5:15 AM,27.5,24.3,88,30.27,10.0,Calm,Calm,-,N/A,,Clear,0,2013-05-12 10:15:00
5:35 AM,26.4,23.5,89,30.27,10.0,Calm,Calm,-,N/A,,Clear,0,2013-05-12 10:35:00
5:55 AM,26.4,23.7,90,30.27,10.0,Calm,Calm,-,N/A,,Clear,0,2013-05-12 10:55:00
6:15 AM,26.6,23.7,89,30.28,10.0,Calm,Calm,-,N/A,,Clear,0,2013-05-12 11:15:00
6:35 AM,26.8,23.9,89,30.28,10.0,SSW,3.5,-,N/A,,Clear,210,2013-05-12 11:35:00
6:55 AM,28.4,25.2,88,30.28,10.0,Calm,Calm,-,N/A,,Clear,0,2013-05-12 11:55:00
7:15 AM,30.2,26.6,86,30.28,10.0,Calm,Calm,-,N/A,,Clear,0,2013-05-12 12:15:00
7:35 AM,33.4,27.7,79,30.27,10.0,Calm,Calm,-,N/A,,Clear,0,2013-05-12 12:35:00
7:55 AM,36.1,27.9,72,30.27,10.0,Calm,Calm,-,N/A,,Clear,0,2013-05-12 12:55:00
8:15 AM,39.2,29.3,68,30.27,10.0,Calm,Calm,-,N/A,,Clear,0,2013-05-12 13:15:00
8:35 AM,42.8,26.1,52,30.27,10.0,Calm,Calm,-,N/A,,Clear,0,2013-05-12 13:35:00
8:55 AM,46.4,25.5,44,30.27,10.0,Calm,Calm,-,N/A,,Clear,0,2013-05-12 13:55:00
9:15 AM,48.7,18.1,30,30.27,10.0,East,3.5,-,N/A,,Clear,100,2013-05-12 14:15:00
9:35 AM,49.8,16.9,27,30.27,10.0,SSE,4.6,-,N/A,,Clear,150,2013-05-12 14:35:00
9:55 AM,51.1,17.8,27,30.27,10.0,Calm,Calm,-,N/A,,Clear,0,2013-05-12 14:55:00
10:15 AM,52.2,17.2,25,30.26,10.0,Calm,Calm,-,N/A,,Clear,0,2013-05-12 15:15:00
10:35 AM,53.4,16.7,24,30.25,10.0,SE,3.5,-,N/A,,Clear,140,2013-05-12 15:35:00
10:55 AM,54.5,16.5,22,30.25,10.0,ENE,4.6,-,N/A,,Clear,60,2013-05-12 15:55:00
11:15 AM,54.5,16.3,22,30.25,10.0,Calm,Calm,-,N/A,,Clear,0,2013-05-12 16:15:00
11:35 AM,55.6,16.5,22,30.25,10.0,SE,4.6,-,N/A,,Clear,140,2013-05-12 16:35:00
11:55 AM,56.3,16.3,21,30.24,10.0,East,4.6,-,N/A,,Clear,100,2013-05-12 16:55:00
12:15 PM,56.1,16.3,21,30.24,10.0,Calm,Calm,-,N/A,,Clear,0,2013-05-12 17:15:00
12:35 PM,58.1,17.2,20,30.24,10.0,North,4.6,-,N/A,,Clear,360,2013-05-12 17:35:00
12:55 PM,58.5,15.6,19,30.23,10.0,SSE,3.5,-,N/A,,Clear,150,2013-05-12 17:55:00
1:15 PM,58.6,17.8,20,30.22,10.0,WNW,3.5,-,N/A,,Clear,290,2013-05-12 18:15:00
1:35 PM,59.7,17.4,19,30.21,10.0,West,3.5,-,N/A,,Clear,260,2013-05-12 18:35:00
1:55 PM,60.6,17.1,18,30.20,10.0,ENE,4.6,-,N/A,,Clear,60,2013-05-12 18:55:00
2:15 PM,62.1,17.1,18,30.19,10.0,Calm,Calm,-,N/A,,Clear,0,2013-05-12 19:15:00
2:35 PM,62.2,20.5,20,30.18,10.0,Calm,Calm,-,N/A,,Clear,0,2013-05-12 19:35:00
2:55 PM,63.0,17.4,17,30.17,10.0,South,5.8,-,N/A,,Clear,190,2013-05-12 19:55:00
3:15 PM,62.2,20.7,20,30.17,10.0,Calm,Calm,-,N/A,,Clear,0,2013-05-12 20:15:00
3:35 PM,63.3,17.1,17,30.16,10.0,Calm,Calm,-,N/A,,Clear,0,2013-05-12 20:35:00
3:55 PM,63.9,17.4,17,30.15,10.0,Calm,Calm,-,N/A,,Clear,0,2013-05-12 20:55:00
4:15 PM,63.9,18.1,17,30.15,10.0,SSW,3.5,-,N/A,,Clear,210,2013-05-12 21:15:00
4:35 PM,65.1,19.2,17,30.14,10.0,Calm,Calm,-,N/A,,Clear,0,2013-05-12 21:35:00
4:55 PM,64.9,19.8,18,30.14,10.0,West,3.5,-,N/A,,Clear,260,2013-05-12 21:55:00
5:15 PM,65.3,20.1,18,30.13,10.0,West,3.5,-,N/A,,Clear,270,2013-05-12 22:15:00
5:35 PM,66.0,19.9,17,30.13,10.0,Calm,Calm,-,N/A,,Clear,0,2013-05-12 22:35:00
5:55 PM,66.7,20.8,17,30.12,10.0,SSW,6.9,-,N/A,,Clear,210,2013-05-12 22:55:00
6:15 PM,66.7,20.8,17,30.12,10.0,WSW,9.2,-,N/A,,Clear,240,2013-05-12 23:15:00
6:35 PM,66.2,21.7,18,30.10,10.0,West,5.8,-,N/A,,Clear,280,2013-05-12 23:35:00
6:55 PM,66.7,21.7,18,30.10,10.0,WSW,4.6,-,N/A,,Clear,240,2013-05-12 23:55:00
7:15 PM,66.6,23.0,19,30.10,10.0,WSW,6.9,-,N/A,,Clear,250,2013-05-13 00:15:00
7:35 PM,65.5,22.6,20,30.09,10.0,WSW,5.8,-,N/A,,Clear,250,2013-05-13 00:35:00
7:55 PM,64.9,22.6,20,30.09,10.0,Calm,Calm,-,N/A,,Clear,0,2013-05-13 00:55:00
8:15 PM,62.6,28.0,27,30.09,10.0,South,3.5,-,N/A,,Clear,180,2013-05-13 01:15:00
8:35 PM,59.7,29.1,31,30.09,10.0,South,3.5,-,N/A,,Clear,170,2013-05-13 01:35:00
8:55 PM,54.5,30.0,39,30.09,10.0,SSE,4.6,-,N/A,,Clear,150,2013-05-13 01:55:00
9:15 PM,52.0,30.9,45,30.09,10.0,Calm,Calm,-,N/A,,Clear,0,2013-05-13 02:15:00
9:35 PM,52.0,30.0,43,30.09,10.0,Calm,Calm,-,N/A,,Clear,0,2013-05-13 02:35:00
9:55 PM,51.6,30.7,45,30.09,10.0,Calm,Calm,-,N/A,,Clear,0,2013-05-13 02:55:00
10:15 PM,50.9,30.7,46,30.10,10.0,Calm,Calm,-,N/A,,Clear,0,2013-05-13 03:15:00
10:35 PM,51.8,29.1,42,30.10,10.0,Calm,Calm,-,N/A,,Clear,0,2013-05-13 03:35:00
10:55 PM,49.3,30.7,49,30.10,10.0,ESE,3.5,-,N/A,,Clear,120,2013-05-13 03:55:00
11:15 PM,48.2,30.0,49,30.10,10.0,Calm,Calm,-,N/A,,Clear,0,2013-05-13 04:15:00
11:35 PM,47.7,30.2,51,30.09,10.0,SSE,4.6,-,N/A,,Clear,150,2013-05-13 04:35:00
11:55 PM,48.4,28.6,46,30.09,10.0,SSE,3.5,-,N/A,,Clear,160,2013-05-13 04:55:00